Home   Weather   Danmarkshavn   Past weeks
Flag for Greenland

Past Weather in Danmarkshavn, Greenland — Yesterday and Last 2 Weeks

Now
37 °F

Sunny.


Feels Like: 37 °F
Forecast: 37 / 35 °F
Wind: No wind

Location: Danmarkshavn

Current Time: Jul 19, 2019 at 8:20:50 am

Latest Report: Jul 19, 2019 at 7:00 am


Visibility: 31 mi

Pressure: 29.83 "Hg

Humidity: 83%

Dew Point: 33 °F

Location of DanmarkshavnLocation

Past Weather in Danmarkshavn — Graph

°F

Danmarkshavn Temperature Yesterday

Maximum temperature yesterday: 41 °F (at 6:00 pm)
Minimum temperature yesterday: 29 °F (at 3:00 am)
Average temperature yesterday: 35 °F

High & Low Weather Summary for the Past Weeks

 TemperatureHumidityPressure
High56 °F (Jul 5, 10:00 pm)99% (Jul 18, 2:00 am)30.29 "Hg (Jul 18, 2:00 am)
Low29 °F (Jul 18, 3:00 am)48% (Jul 6, 2:00 pm)29.82 "Hg (Jul 18, 6:00 pm)
Average40 °F79%30.02 "Hg
* Reported Jul 4 6:00 am — Jul 19 6:00 am, Danmarkshavn. Weather by CustomWeather, © 2019

Note: Actual official high and low records may vary slightly from our data, if they occured in-between our weather recording intervals... More about our weather records

Advertising

Danmarkshavn Weather History for the Previous 24 Hours

Scroll right to see more
 ConditionsComfort  
Time TempWeatherWind HumidityBarometerVisibility
6:00 am
Fri, Jul 19
34 °FSunny.1 mph88%29.84 "Hg31 mi
5:00 am35 °FSunny.2 mph87%29.83 "Hg31 mi
4:00 am36 °FPartly sunny.6 mph85%29.83 "Hg31 mi
3:00 am39 °FOvercast.6 mph77%29.83 "Hg31 mi
2:00 am40 °FPassing clouds.7 mph77%29.83 "Hg31 mi
1:00 am39 °FPassing clouds.10 mph79%29.83 "Hg31 mi
12:00 am40 °FOvercast.8 mph78%29.83 "Hg31 mi
11:00 pm
Thu, Jul 18
39 °FOvercast.8 mph79%29.83 "Hg31 mi
10:00 pm39 °FDrizzle. Overcast.5 mph79%29.82 "Hg25 mi
9:00 pm39 °FOvercast.7 mph79%29.82 "Hg31 mi
8:00 pm39 °FSunny.3 mph76%29.82 "Hg28 mi
7:00 pm40 °FSunny.3 mph75%29.82 "Hg31 mi
6:00 pm41 °FSunny.6 mph71%29.82 "Hg31 mi
5:00 pm40 °FOvercast.3 mph74%29.82 "Hg31 mi
4:00 pm38 °FOvercast.3 mph78%29.83 "Hg31 mi
3:00 pm38 °FOvercast.2 mph79%29.83 "Hg28 mi
2:00 pm38 °FOvercast.7 mph78%29.83 "Hg31 mi
1:00 pm37 °FOvercast.7 mph82%29.83 "Hg31 mi
12:00 pm35 °FOvercast.1 mph86%29.84 "Hg31 mi
11:00 am33 °FOvercast.3 mph88%29.84 "Hg31 mi
10:00 am33 °FLow clouds.No wind84%29.84 "Hg31 mi
9:00 am32 °FOvercast.2 mph89%29.84 "Hg31 mi
8:00 am32 °FOvercast.2 mph87%29.85 "Hg31 mi
Weather by CustomWeather, © 2019

See weather overview